OneWeb SL0658

operational
NORAD ID: 55819 Int'l Des: 2023-029 Owner: ONEWEBN Country: UK Constellation: oneweb
LEOCIRCULARPOLARONEWEB_TYPE

关于 OneWeb SL0658

正在加载描述...

实时位置

正在加载3D地球...

即将过境

高度历史

Altitude vs Time

uPlot chart will show altitude changes over time

两行轨道根数

1 55819U 23029Z 26062.15218388 .00000104 00000-0 22868-3 0 9990
2 55819 87.9246 326.0660 0001925 91.5395 268.5958 13.19725437144934
Epoch: Mar 3, 2026 • Age: 21 hours

当前状态

高度 1187.8 km
速度 7.26 km/s
星下点 8.22°N, 30.54°E
发射日期 Mar 9, 2023
运行时间 2.9 years
类型 internet

技术详情

分类 Payload
质量 148.00 kg
干质量 140.00 kg
总质量 148.00 kg
长度 1.30 m
直径 1.00 m
跨度 5.00 m
形状 Trapezoid+2 pan
制造商 ONEWUS
平台类型 ARROW
阶段状态 In Orbit
所有者/国家 ONEWEBN/UK

大型星座

Loading constellations...